sat.trackr.live / text

‹ back to catalog

PRAETORIAN SDA_606

NORAD 65569 · 2025-203E

PAYLOAD ACTIVE UNKNOWN

§ Identity

Operator
Country
US
Launch date
2025-09-10
Launch site
AFWTR
Launch vehicle
Mass (kg)
RCS (m²)

Purposes: military

External: N2YO · Heavens-Above · Gunter

§ Orbital elements

Epoch: 2026-09-20T01:36:12.199104Z

Period
104.11 min
Inclination
81.3020°
Eccentricity
0.0005070
Mean motion
13.83211527 rev/d
Perigee alt
948.8 km
Apogee alt
956.2 km
Semi-major
7,330.7 km
B*
3.9813e-5
RAAN
283.2894°
Arg perigee
303.0557°
Mean anomaly
57.0111°
Rev number
5,180

§ Raw data

PRAETORIAN SDA_6061 65569U 25203E   26263.06680786  .00000055  00000+0  39813-4 0  99902 65569  81.3020 283.2894 0005070 303.0557  57.0111 13.83211527 51800

JSON: /api/v1/satellites/65569 · /tle

For live sub-satellite position, see the globe view (requires WebGL).

§ Visibility from observer

Set your observer location to see the next 7 days of passes ≥ 10°. The values pass through the URL so the page stays shareable.

No JS? Fill the form by hand. The geolocation button needs JavaScript.